Location: Tehachapi Municipal Airport
(35.1300°N, 118.4400°W)
Time: 13:40:11
(UTC-08:00)

BREEZE M DEB (TANK) - Visible Passes

Search period start: 19 December 2014 00:00
Search period end: 29 December 2014 00:00
Orbit: 307 x 12169 km, 49.5° (Epoch: 18 December)

Date Brightness Start Highest point End Pass type
(mag) Time Alt. Az. Time Alt. Az. Time Alt. Az.
20 Dec 8.8 06:22:47 10° SSE 07:32:31 30° ESE 08:10:55 10° ENE visible
20 Dec 5.8 20:24:44 10° WNW 20:28:36 16° W 20:28:36 16° W visible
21 Dec 9.0 05:59:21 10° SE 07:00:15 24° E 07:36:31 10° ENE visible
21 Dec 5.0 19:51:26 10° WNW 19:58:51 26° WSW 19:59:02 26° WSW visible
22 Dec 9.3 05:39:29 10° SE 06:28:23 19° E 07:00:23 10° ENE visible
22 Dec 4.2 19:18:19 10° NW 19:28:27 41° WSW 19:29:28 37° SSW visible
23 Dec 9.6 05:25:51 10° ESE 05:56:57 14° E 06:20:19 10° ENE visible
23 Dec 4.0 18:45:02 10° NW 18:57:48 61° SW 18:59:53 32° SSE visible
24 Dec 3.9 18:11:24 10° NW 18:26:52 82° SW 18:30:18 18° SE visible
25 Dec 4.1 17:37:15 10° NW 17:55:40 80° NE 18:00:23 10° ESE visible
26 Dec 4.5 17:02:21 10° NW 17:24:12 68° NNE 17:29:32 10° ESE visible
27 Dec 8.5 06:32:20 10° S 07:59:25 49° ESE 08:42:51 10° NE visible
28 Dec 8.7 06:03:09 10° SSE 07:25:55 43° ESE 08:10:09 10° NE visible
